Regional Weather Roundup
Issued by NWS

Home | Current Version | Previous Version | Graphics & Text | Print | Product List | Glossary Off
Versions: 1 2 3 4 5 6 7 8 9 10 11 12 13 14 15 16 17 18 19 20 21 22 23 24 25 26 27 28 29 30 31 32 33 34 35 36 37 38 39 40 41 42 43 44 45 46 47 48 49 50

000
ASUS43 KFSD 212210
RWRSD

WEATHER ROUNDUP FOR SOUTH DAKOTA
NATIONAL WEATHER SERVICE SIOUX FALLS SD
400 PM CST SUN DEC 21 2014

NOTE: "FAIR" INDICATES FEW OR NO CLOUDS BELOW 12,000 FEET WITH NO
SIGNIFICANT WEATHER AND/OR OBSTRUCTIONS TO VISIBILITY.


SDZ001>005-009-010-012>017-212300-
NORTHWEST AND NORTH CENTRAL SOUTH DAKOTA

CITY           SKY/WX    TMP DP  RH WIND       PRES   REMARKS
BUFFALO          N/A     39  34  82 SW8       29.31F
FAITH            N/A     38  28  67 CALM      29.39F
MOBRIDGE       CLEAR     38  30  73 E12       29.40F
$$

SDZ012>016-024>037-041>051-057-063-072>074-212300-
SOUTHWEST AND SOUTH CENTRAL SOUTH DAKOTA

CITY           SKY/WX    TMP DP  RH WIND       PRES   REMARKS
RAPID CTY ARPT CLOUDY    45  26  47 NW10      29.39R
PIERRE         PTCLDY    34  29  82 E7        29.41S WCI  28
CUSTER         CLOUDY    38  28  67 W12       29.41R
ELLSWORTH AFB  CLOUDY    44  25  47 N9        29.39
PHILIP         CLOUDY    46  30  53 N8        29.38R
PINE RIDGE     PTSUNNY   48  29  47 NW17      29.39R
SPEARFISH      LGT RAIN  39  34  81 W7        29.41S
WINNER         FAIR      43  30  60 S20       29.41F
$$

SDZ004>011-016>023-039-040-212300-
NORTHEAST SOUTH DAKOTA

CITY           SKY/WX    TMP DP  RH WIND       PRES   REMARKS
ABERDEEN       CLOUDY    34  30  85 S13       29.52S WCI  25
WATERTOWN      CLOUDY    32  31  96 SE12G21   29.52F FOG     WCI  23
SISSETON         N/A     33  32  96 SE14      29.55F WCI  23
$$

SDZ017-020-022-023-036>040-048>070-212300-
SOUTHEAST SOUTH DAKOTA

CITY           SKY/WX    TMP DP  RH WIND       PRES   REMARKS
SIOUX FALLS    CLOUDY    38  35  89 S22       29.58F
HURON          CLEAR     36  32  85 SE12      29.49F
CHAMBERLAIN    CLEAR     34  30  83 SE7       29.43F WCI  28
MITCHELL       CLEAR     37  33  85 S17       29.51F
YANKTON        CLOUDY    37  34  87 S20G25    29.59F
$$

ABBREVIATIONS USED IN REMARKS
   TC - TEMPERATURE IN CELSIUS
  WCI - WIND CHILL INDEX
   HX - HEAT INDEX
  VSB - VISIBILITY




USA.gov is the U.S. government's official web portal to all federal, state and local government web resources and services.